| time (UTC) | temp F | wind direction | speed knots | gust knots | rain 1hr in | rain 24hr in | rain mn in | humidity % | barometer mb |
| 20260508094507 | 30 | 360 | 0.0 | 0.0 | 0.00 | 0.00 | 0.00 | 94 | 1010.2 |
| 20260508093008 | 30 | 360 | 0.0 | 0.0 | 0.00 | 0.00 | 0.00 | 94 | 1010.3 |
| 20260508091504 | 31 | 360 | 0.0 | 0.0 | 0.00 | 0.00 | 0.00 | 94 | 1010.3 |
| 20260508090002 | 31 | 360 | 0.0 | 0.0 | 0.00 | 0.00 | 0.00 | 94 | 1010.5 |
| 20260508084600 | 31 | 360 | 0.0 | 0.0 | 0.00 | 0.00 | 0.00 | 94 | 1010.5 |
| 20260508083059 | 31 | 360 | 0.0 | 0.0 | 0.00 | 0.00 | 0.00 | 93 | 1010.6 |
| 20260508081612 | 31 | 360 | 0.0 | 0.0 | 0.00 | 0.00 | 0.00 | 93 | 1010.6 |
| 20260508074558 | 32 | 360 | 0.0 | 0.0 | 0.00 | 0.00 | 0.00 | 93 | 1010.8 |
| 20260508073052 | 32 | 360 | 0.0 | 0.0 | 0.00 | 0.00 | 0.00 | 92 | 1011.0 |
| 20260508071551 | 33 | 360 | 0.0 | 0.0 | 0.00 | 0.00 | 0.00 | 92 | 1011.0 |
| 20260508070048 | 33 | 360 | 0.0 | 0.0 | 0.00 | 0.00 | 0.00 | 91 | 1011.0 |
| 20260508064547 | 33 | 360 | 0.0 | 0.0 | 0.00 | 0.00 | 0.00 | 91 | 1011.1 |
| 20260508063048 | 34 | 360 | 0.0 | 1.7 | 0.00 | 0.00 | 0.00 | 91 | 1011.3 |
| 20260508061543 | 34 | 360 | 0.0 | 1.7 | 0.00 | 0.00 | 0.00 | 91 | 1011.4 |
| 20260508060055 | 35 | 360 | 0.0 | 0.9 | 0.00 | 0.00 | 0.00 | 90 | 1011.4 |
| 20260508054611 | 35 | 360 | 0.0 | 1.7 | 0.00 | 0.00 | 0.00 | 90 | 1011.3 |
| 20260508053047 | 35 | 360 | 0.9 | 2.6 | 0.00 | 0.00 | 0.00 | 89 | 1011.3 |
| 20260508051535 | 36 | 360 | 0.0 | 1.7 | 0.00 | 0.00 | 0.00 | 88 | 1011.3 |
| 20260508050037 | 36 | 360 | 0.0 | 0.0 | 0.00 | 0.00 | 0.00 | 88 | 1011.3 |
| 20260508044532 | 37 | 360 | 0.0 | 0.0 | 0.00 | 0.00 | 0.00 | 87 | 1011.3 |
| 20260508043035 | 37 | 360 | 0.0 | 0.0 | 0.00 | 0.00 | 0.00 | 86 | 1011.3 |
| 20260508041527 | 38 | 360 | 0.0 | 0.0 | 0.00 | 0.00 | 0.00 | 85 | 1011.3 |
| 20260508040031 | 38 | 360 | 0.0 | 0.0 | 0.00 | 0.00 | 0.00 | 84 | 1011.2 |
| 20260508034534 | 39 | 360 | 0.0 | 0.9 | 0.00 | 0.00 | 0.00 | 83 | 1011.3 |
| 20260508033030 | 39 | 360 | 0.0 | 0.0 | 0.00 | 0.00 | 0.00 | 83 | 1011.3 |
| 20260508031524 | 39 | 360 | 0.0 | 0.0 | 0.00 | 0.00 | 0.00 | 82 | 1011.5 |
| 20260508030023 | 40 | 360 | 0.0 | 0.9 | 0.00 | 0.00 | 0.00 | 81 | 1011.5 |
| 20260508024526 | 40 | 360 | 0.9 | 1.7 | 0.00 | 0.00 | 0.00 | 79 | 1011.4 |
| 20260508023022 | 41 | 360 | 0.0 | 0.9 | 0.00 | 0.00 | 0.00 | 76 | 1011.5 |
| 20260508021522 | 42 | 360 | 0.0 | 0.0 | 0.00 | 0.00 | 0.00 | 74 | 1011.2 |
| 20260508020021 | 43 | 360 | 0.0 | 1.7 | 0.00 | 0.00 | 0.00 | 72 | 1011.1 |
| 20260508014520 | 45 | 360 | 0.0 | 0.9 | 0.00 | 0.00 | 0.00 | 69 | 1010.8 |
| 20260508013022 | 46 | 194 | 0.0 | 0.0 | 0.00 | 0.00 | 0.00 | 67 | 1010.5 |
| 20260508011522 | 47 | 360 | 0.0 | 0.0 | 0.00 | 0.00 | 0.00 | 63 | 1010.5 |
| 20260508010032 | 48 | 360 | 0.0 | 0.9 | 0.00 | 0.00 | 0.00 | 62 | 1010.5 |
| 20260508004525 | 48 | 360 | 0.0 | 1.7 | 0.00 | 0.00 | 0.00 | 57 | 1010.3 |
| 20260508003018 | 49 | 360 | 0.0 | 2.6 | 0.00 | 0.00 | 0.00 | 55 | 1010.2 |
| 20260508001517 | 49 | 360 | 2.6 | 5.2 | 0.00 | 0.00 | 0.00 | 54 | 1010.2 |
| 20260508000016 | 50 | 360 | 1.7 | 5.2 | 0.00 | 0.00 | 0.00 | 53 | 1010.1 |
| 20260507234516 | 50 | 189 | 3.5 | 7.0 | 0.00 | 0.00 | 0.00 | 53 | 1010.2 |
| 20260507233013 | 49 | 360 | 2.6 | 6.1 | 0.00 | 0.00 | 0.00 | 54 | 1010.2 |
| 20260507231512 | 49 | 215 | 2.6 | 6.1 | 0.00 | 0.00 | 0.00 | 57 | 1010.5 |
| 20260507230009 | 48 | 239 | 2.6 | 7.0 | 0.00 | 0.00 | 0.00 | 59 | 1010.7 |
| 20260507224512 | 48 | 261 | 4.3 | 7.0 | 0.00 | 0.00 | 0.00 | 58 | 1010.8 |
| 20260507223007 | 48 | 270 | 4.3 | 7.0 | 0.00 | 0.00 | 0.00 | 56 | 1011.0 |
| 20260507221508 | 48 | 246 | 2.6 | 5.2 | 0.00 | 0.00 | 0.00 | 56 | 1010.9 |
| 20260507220005 | 49 | 266 | 3.5 | 8.7 | 0.00 | 0.00 | 0.00 | 55 | 1011.1 |
| 20260507214504 | 49 | 250 | 7.0 | 10.4 | 0.00 | 0.00 | 0.00 | 54 | 1011.2 |
| 20260507213002 | 48 | 360 | 3.5 | 7.8 | 0.00 | 0.00 | 0.00 | 55 | 1011.1 |
| 20260507211502 | 48 | 360 | 3.5 | 9.6 | 0.00 | 0.00 | 0.00 | 59 | 1011.2 |
| 20260507210105 | 48 | 284 | 3.5 | 8.7 | 0.00 | 0.00 | 0.00 | 54 | 1011.3 |
| 20260507204601 | 48 | 360 | 2.6 | 11.3 | 0.00 | 0.00 | 0.00 | 53 | 1011.4 |
| 20260507203100 | 47 | 360 | 5.2 | 8.7 | 0.00 | 0.00 | 0.00 | 55 | 1011.5 |
| 20260507201557 | 47 | 360 | 7.8 | 10.4 | 0.00 | 0.00 | 0.00 | 57 | 1011.8 |
| 20260507200056 | 48 | 360 | 2.6 | 11.3 | 0.00 | 0.00 | 0.00 | 56 | 1012.0 |
| 20260507194555 | 48 | 244 | 6.1 | 11.3 | 0.00 | 0.00 | 0.00 | 48 | 1012.2 |
| 20260507193053 | 48 | 219 | 4.3 | 10.4 | 0.00 | 0.00 | 0.00 | 52 | 1012.3 |
| 20260507191553 | 48 | 252 | 6.1 | 10.4 | 0.00 | 0.00 | 0.00 | 50 | 1012.3 |
| 20260507190052 | 48 | 325 | 4.3 | 9.6 | 0.00 | 0.00 | 0.00 | 49 | 1012.4 |
| 20260507184551 | 48 | 222 | 4.3 | 7.8 | 0.00 | 0.00 | 0.00 | 49 | 1012.3 |
| 20260507183050 | 49 | 264 | 4.3 | 8.7 | 0.00 | 0.00 | 0.00 | 50 | 1012.2 |
| 20260507181546 | 48 | 267 | 3.5 | 8.7 | 0.00 | 0.00 | 0.00 | 51 | 1012.4 |
| 20260507180054 | 48 | 289 | 6.1 | 11.3 | 0.00 | 0.00 | 0.00 | 57 | 1012.5 |
| 20260507174544 | 48 | 286 | 4.3 | 7.8 | 0.00 | 0.00 | 0.00 | 55 | 1012.3 |
| 20260507173047 | 47 | 292 | 5.2 | 8.7 | 0.00 | 0.00 | 0.00 | 58 | 1012.7 |
| 20260507171558 | 47 | 306 | 4.3 | 7.8 | 0.00 | 0.00 | 0.00 | 63 | 1012.9 |
| 20260507170042 | 47 | 271 | 5.2 | 9.6 | 0.00 | 0.00 | 0.00 | 64 | 1013.1 |
| 20260507164545 | 47 | 282 | 4.3 | 11.3 | 0.00 | 0.00 | 0.00 | 65 | 1013.3 |
| 20260507163044 | 45 | 256 | 5.2 | 11.3 | 0.00 | 0.00 | 0.00 | 69 | 1013.5 |
| 20260507161541 | 45 | 263 | 7.0 | 12.2 | 0.00 | 0.00 | 0.00 | 70 | 1013.7 |
| 20260507160045 | 46 | 284 | 6.1 | 13.9 | 0.00 | 0.00 | 0.00 | 68 | 1013.8 |
| 20260507154533 | 46 | 254 | 3.5 | 13.0 | 0.00 | 0.00 | 0.00 | 70 | 1013.9 |
| 20260507153032 | 45 | 360 | 7.0 | 11.3 | 0.00 | 0.00 | 0.00 | 70 | 1013.8 |
| 20260507151528 | 44 | 360 | 4.3 | 12.2 | 0.00 | 0.00 | 0.00 | 71 | 1013.8 |
| 20260507150028 | 43 | 360 | 2.6 | 9.6 | 0.00 | 0.00 | 0.00 | 72 | 1013.8 |
| 20260507144532 | 43 | 360 | 5.2 | 10.4 | 0.00 | 0.00 | 0.00 | 75 | 1013.8 |
| 20260507143025 | 42 | 360 | 2.6 | 7.0 | 0.00 | 0.00 | 0.00 | 77 | 1013.9 |
| 20260507141524 | 42 | 360 | 4.3 | 8.7 | 0.00 | 0.00 | 0.00 | 75 | 1014.0 |
| 20260507140022 | 42 | 360 | 4.3 | 7.8 | 0.00 | 0.00 | 0.00 | 73 | 1013.9 |
| 20260507134521 | 42 | 360 | 2.6 | 7.8 | 0.00 | 0.00 | 0.00 | 73 | 1013.9 |
| 20260507133021 | 42 | 360 | 2.6 | 7.8 | 0.00 | 0.00 | 0.00 | 74 | 1013.9 |
| 20260507131518 | 42 | 360 | 2.6 | 7.0 | 0.00 | 0.00 | 0.00 | 79 | 1013.7 |
| 20260507130025 | 42 | 360 | 3.5 | 7.8 | 0.00 | 0.00 | 0.00 | 82 | 1013.5 |
| 20260507124522 | 40 | 360 | 1.7 | 4.3 | 0.00 | 0.00 | 0.00 | 89 | 1013.4 |
| 20260507123016 | 39 | 360 | 1.7 | 6.1 | 0.00 | 0.00 | 0.00 | 94 | 1013.3 |
| 20260507121514 | 38 | 360 | 3.5 | 7.0 | 0.00 | 0.00 | 0.00 | 96 | 1013.2 |
| 20260507120013 | 36 | 360 | 2.6 | 5.2 | 0.00 | 0.00 | 0.00 | 97 | 1013.1 |
| 20260507114510 | 33 | 150 | 1.7 | 2.6 | 0.00 | 0.00 | 0.00 | 95 | 1012.9 |
| 20260507113010 | 33 | 360 | 0.0 | 0.0 | 0.00 | 0.00 | 0.00 | 95 | 1012.8 |
| 20260507111503 | 32 | 360 | 0.0 | 0.9 | 0.00 | 0.00 | 0.00 | 94 | 1012.8 |
| 20260507110100 | 32 | 360 | 0.0 | 0.9 | 0.00 | 0.00 | 0.00 | 93 | 1012.6 |
| 20260507104559 | 32 | 360 | 0.0 | 1.7 | 0.00 | 0.00 | 0.00 | 93 | 1012.5 |
| 20260507103055 | 33 | 360 | 0.0 | 1.7 | 0.00 | 0.00 | 0.00 | 93 | 1012.4 |
| 20260507101558 | 33 | 360 | 0.0 | 0.9 | 0.00 | 0.00 | 0.00 | 92 | 1012.4 |
| 20260507100055 | 33 | 360 | 0.0 | 1.7 | 0.00 | 0.00 | 0.00 | 92 | 1012.4 |